Regional Weather Roundup
Issued by NWS Kansas City/Pleasant Hill, MO

Home | Current Version | Previous Version | Text Only | Print | Product List | Glossary On
Versions: 1 2 3 4 5 6 7 8 9 10 11 12 13 14 15 16 17 18 19 20 21 22 23 24 25 26 27 28 29 30 31 32 33 34 35 36 37 38 39 40 41 42 43 44 45 46 47 48 49 50
000
ASUS43 KEAX 281210
RWREAX

WEATHER ROUNDUP FOR EASTERN KANSAS AND NORTHWEST MISSOURI
NATIONAL WEATHER SERVICE KANSAS CITY/PLEASANT HILL MO
700 AM CDT TUE MAR 28 2017

KSZ040-057-103>105-MOZ028-029-037-043-281300-
...KANSAS CITY METROPOLITAN AREA...

CITY           SKY/WX    TMP DP  RH WIND       PRES   REMARKS
K.C. INTL      CLOUDY    48  46  93 E8        30.04R
6HR MIN TEMP:  48; 6HR MAX TEMP:  49;

K.C. DOWNTOWN  CLOUDY    49  46  90 NE6       30.04R
6HR MIN TEMP:  49; 6HR MAX TEMP:  52;

LEES SUMMIT    CLOUDY    48  47  96 NE6       30.04R
6HR MIN TEMP:  48; 6HR MAX TEMP:  50;

OLATHE - IXD   CLOUDY    48  46  93 NE7       30.03S
6HR MIN TEMP:  48; 6HR MAX TEMP:  50;

OLATHE - OJC   CLOUDY    47  47 100 NE6       30.03R
6HR MIN TEMP:  47; 6HR MAX TEMP:  50;

LAWRENCE       CLOUDY    49  45  86 NE6       30.04R

$$

MOZ001>008-011>017-020>025-030>033-038>040-044>046-053-054-281300-
...NORTHERN AND CENTRAL MISSOURI...

CITY           SKY/WX    TMP DP  RH WIND       PRES   REMARKS
ST. JOSEPH     CLOUDY    48  46  93 E3        30.05R
6HR MIN TEMP:  47; 6HR MAX TEMP:  48;

MOSBY          CLOUDY    46  45  93 NE3       30.05R
WARRENSBURG    CLOUDY    46  46 100 NE3       30.04R FOG
WHITEMAN AFB   FOG       49  49 100 NE7       30.02R VSB 1
6HR MIN TEMP:  49; 6HR MAX TEMP:  49; 6HR PCP:  0.01;

CLINTON        CLOUDY    48  48 100 CALM      30.04R
SEDALIA        CLOUDY    50  49  96 NE6       30.04R FOG
6HR MIN TEMP:  50; 6HR MAX TEMP:  50; 6HR PCP:  0.02;

WARSAW         NOT AVBL
CHILLICOTHE      N/A     48  45  89 N3        30.05R
6HR MIN TEMP:  48; 6HR MAX TEMP:  49;

KIRKSVILLE     CLOUDY    47  46  97 NE6       30.05S FOG
6HR MIN TEMP:  47; 6HR MAX TEMP:  48;


$$

MOZ041-047>049-056>058-063>065-088>090-097-281300-
...EASTERN AND SOUTHERN MISSOURI...

CITY           SKY/WX    TMP DP  RH WIND       PRES   REMARKS
ST. LOUIS INTL DRIZZLE   53  50  89 NW5       30.05R FOG
6HR MIN TEMP:  53; 6HR MAX TEMP:  55; 6HR PCP: TRACE;

SPIRIT OF STL  CLOUDY    52  50  93 NW8       30.05R
COLUMBIA       CLOUDY    50  49  96 E7        30.03S
JEFFERSON CITY CLOUDY    53  48  83 E6        30.04R
ROLLA          CLOUDY    51  50  96 NE6       30.01R
OSAGE BEACH    LGT RAIN N/A N/A N/A NE8       30.03R
SPRINGFIELD    CLOUDY    50  49  96 CALM      30.01R
BRANSON        CLOUDY    50  48  93 CALM      30.02R
JOPLIN         CLOUDY    51  48  89 NE8       30.01S
WEST PLAINS    CLOUDY    53  50  89 CALM      30.02R

$$

IAZ060-094-KSZ022-034>040-054-083-096-NEZ052-066-093-281300-
...KANSAS...SOUTHEAST NEBRASKA AND IOWA...

CITY           SKY/WX    TMP DP  RH WIND       PRES   REMARKS
TOPEKA         PTCLDY    47  44  90 CALM      30.03R
6HR MIN TEMP:  47; 6HR MAX TEMP:  51;

MANHATTAN      PTCLDY    46  43  89 NE5       30.02R
EMPORIA        CLOUDY    49  47  93 E8        30.01S
CHANUTE        CLOUDY    51  46  83 NE5       30.01S
WICHITA        CLOUDY    50  45  83 E8        30.00R
OMAHA          CLOUDY    39  35  86 NW5       30.07R
LINCOLN        PTCLDY    33  31  92 CALM      30.07R
FALLS CITY     CLOUDY    46  43  89 NE6       30.03S
LAMONI         CLOUDY    45  42  89 N8        30.05R
DES MOINES     CLOUDY    48  41  76 NE3       30.07R

$$




USA.gov is the U.S. government's official web portal to all federal, state and local government web resources and services.